FW7345 Weather Reports


Display with metric or nautical units.
time (UTC)temp
F
wind
direction
speed
MPH
gust
MPH
rain 1hr
in
rain 24hr
in
rain mn
in
humidity
%
barometer
mb
20260902234605 91 245 2.0 9.0 0.00 0.00 0.00 66 1011.0
20260902233100 92 167 2.0 8.0 0.00 0.00 0.00 64 1011.0
20260902231600 92 207 4.0 10.0 0.00 0.00 0.00 62 1010.8
20260902230058 93 247 3.0 11.0 0.00 0.00 0.00 63 1010.9
20260902224602 95 251 3.0 10.0 0.00 0.00 0.00 62 1010.7
20260902223102 96 237 3.0 12.0 0.00 0.00 0.00 61 1010.7
20260902221608 96 243 2.0 11.0 0.00 0.00 0.00 59 1010.8
20260902214607 97 232 2.0 8.0 0.00 0.00 0.00 57 1010.8
20260902213105 97 136 2.0 6.0 0.00 0.00 0.00 54 1010.9
20260902211615 97 0 3.0 9.0 0.00 0.00 0.00 55 1011.0
20260902210119 98 250 2.0 5.0 0.00 0.00 0.00 55 1011.2
20260902204606 98 243 0.0 7.0 0.00 0.00 0.00 55 1011.4
20260902203104 99 261 0.0 7.0 0.00 0.00 0.00 55 1011.5
20260902201611 97 274 1.0 8.0 0.00 0.00 0.00 56 1011.6
20260902200106 97 163 2.0 8.0 0.00 0.00 0.00 55 1012.0
20260902194608 97 304 4.0 8.0 0.00 0.00 0.00 55 1012.2
20260902193104 97 236 4.0 8.0 0.00 0.00 0.00 56 1012.5
20260902191605 96 307 2.0 7.0 0.00 0.00 0.00 57 1012.6
20260902190109 96 332 3.0 9.0 0.00 0.00 0.00 59 1013.0
20260902184603 96 225 6.0 10.0 0.00 0.00 0.00 58 1013.2
20260902183105 96 229 4.0 9.0 0.00 0.00 0.00 60 1013.5
20260902181612 94 210 3.0 6.0 0.00 0.00 0.00 64 1013.7
20260902180117 93 297 4.0 10.0 0.00 0.00 0.00 66 1013.9
20260902174605 92 302 4.0 9.0 0.00 0.00 0.00 68 1014.2
20260902173103 91 300 4.0 12.0 0.00 0.00 0.00 69 1014.6
20260902171606 90 316 3.0 12.0 0.00 0.00 0.00 71 1014.8
20260902170111 90 267 6.0 14.0 0.00 0.00 0.00 71 1015.0
20260902164600 90 279 6.0 10.0 0.00 0.00 0.00 73 1015.2
20260902163105 90 235 0.0 5.0 0.00 0.00 0.00 82 1015.3
20260902161603 89 0 0.0 7.0 0.00 0.00 0.00 85 1015.5
20260902154605 86 0 3.0 12.0 0.00 0.00 0.00 87 1015.5
20260902153103 85 0 2.0 11.0 0.00 0.00 0.00 89 1015.4
20260902151607 84 0 0.0 10.0 0.00 0.00 0.00 93 1015.3
20260902150106 83 0 0.0 4.0 0.00 0.00 0.00 95 1015.3
20260902144614 82 0 0.0 3.0 0.00 0.00 0.00 97 1015.3
20260902143103 81 0 0.0 0.0 0.00 0.00 0.00 99 1015.3
20260902141608 80 0 0.0 0.0 0.00 0.00 0.00 100 1015.3
20260902140058 80 0 0.0 0.0 0.00 0.00 0.00 100 1015.4
20260902134602 79 0 0.0 0.0 0.00 0.00 0.00 100 1015.2
20260902133100 79 0 0.0 0.0 0.00 0.00 0.00 100 1015.2
20260902131601 79 0 0.0 0.0 0.00 0.00 0.00 100 1015.0
20260902130105 78 0 0.0 0.0 0.00 0.00 0.00 100 1014.8
20260902124601 78 0 0.0 0.0 0.00 0.00 0.00 100 1014.6
20260902123100 78 0 0.0 0.0 0.00 0.00 0.00 100 1014.3
20260902121557 78 0 0.0 0.0 0.00 0.00 0.00 100 1013.9
20260902120105 77 0 0.0 0.0 0.00 0.00 0.00 100 1014.0
20260902114603 77 0 0.0 0.0 0.00 0.00 0.00 100 1014.2
20260902113102 77 0 0.0 0.0 0.00 0.00 0.00 100 1013.9
20260902111605 77 0 0.0 0.0 0.00 0.00 0.00 100 1014.0
20260902110106 77 0 0.0 0.0 0.00 0.00 0.00 100 1013.9
20260902104603 77 0 0.0 0.0 0.00 0.00 0.00 100 1014.0
20260902103103 77 0 0.0 0.0 0.00 0.00 0.00 99 1013.8
20260902101557 77 0 0.0 0.0 0.00 0.00 0.00 99 1013.8
20260902100113 78 0 0.0 0.0 0.00 0.00 0.00 99 1013.7
20260902094616 78 0 0.0 0.0 0.00 0.00 0.00 99 1013.7
20260902093100 78 0 0.0 0.0 0.00 0.00 0.00 99 1013.8
20260902091604 78 0 0.0 0.0 0.00 0.00 0.00 99 1013.8
20260902090104 78 0 0.0 0.0 0.00 0.00 0.00 99 1013.7
20260902084607 78 0 0.0 0.0 0.00 0.00 0.00 99 1013.7
20260902083105 78 0 0.0 0.0 0.00 0.00 0.00 99 1013.7
20260902081606 0 0 0.0 2.0 0.00 0.00 0.00 94 1013.7
20260902080114 79 0 0.0 1.0 0.00 0.00 0.00 94 1013.7
20260902074559 79 0 0.0 2.0 0.00 0.00 0.00 93 1013.8
20260902073057 79 291 0.0 2.0 0.00 0.00 0.00 94 1013.9
20260902071600 79 295 1.0 4.0 0.00 0.00 0.00 94 1013.8
20260902070106 78 0 1.0 2.0 0.00 0.00 0.00 95 1013.9
20260902064610 78 0 0.0 0.0 0.00 0.00 0.00 95 1013.8
20260902063100 78 0 0.0 0.0 0.00 0.00 0.00 95 1013.8
20260902060120 77 0 0.0 0.0 0.00 0.00 0.00 94 1013.8
20260902054558 77 0 0.0 0.0 0.00 0.00 0.00 94 1014.0
20260902053124 78 0 0.0 0.0 0.00 0.00 0.00 94 1013.9
20260902051607 78 0 0.0 0.0 0.00 0.00 0.00 94 1013.8
20260902050107 78 0 0.0 0.0 0.00 0.00 0.00 93 1013.7
20260902044558 78 0 0.0 0.0 0.00 0.00 0.00 93 1013.7
20260902043103 78 0 0.0 0.0 0.00 0.00 0.00 93 1013.7
20260902041601 78 0 0.0 0.0 0.00 0.00 0.00 93 1014.0
20260902034603 79 0 0.0 0.0 0.00 0.00 0.00 92 1013.9
20260902033110 79 0 0.0 0.0 0.00 0.00 0.00 92 1013.9
20260902031604 79 0 0.0 0.0 0.00 0.00 0.00 91 1013.7
20260902030058 79 0 0.0 0.0 0.00 0.00 0.00 89 1013.6
20260902024608 80 0 0.0 0.0 0.00 0.00 0.00 89 1013.5
20260902023101 80 0 0.0 0.0 0.00 0.00 0.00 88 1013.5
20260902021614 81 0 0.0 0.0 0.00 0.00 0.00 87 1013.2
20260902020057 81 0 0.0 2.0 0.00 0.00 0.00 87 1013.0
20260902014606 81 0 0.0 0.0 0.00 0.00 0.00 85 1012.8
20260902013106 82 0 0.0 0.0 0.00 0.00 0.00 84 1012.5
20260902011602 83 0 0.0 0.0 0.00 0.00 0.00 82 1012.5
20260902010105 84 0 0.0 0.0 0.00 0.00 0.00 81 1012.7
20260902004606 85 0 0.0 1.0 0.00 0.00 0.00 79 1012.8
20260902003106 85 0 0.0 4.0 0.00 0.00 0.00 79 1012.7
20260902001605 86 0 0.0 2.0 0.00 0.00 0.00 75 1012.7